User: anonymous   Login
Location: Unspecified
(0.0000°N, 0.0000°E)
Time: 20:05:46
(UTC+00:00)
Language:

ES'HAIL 2 - Orbit

View from above orbital plane
View from above orbital plane
View from above satellite
View from above satellite

Ground track
Ground track

The orbit is defined by the following mean orbital elements,

1 43700U          26145.58884178 +.00000000 +00000-0 +00000-0 0 00004
2 43700   0.0389  94.9524 0001698 359.9892  26.0068  1.00273244    03
Epoch (UTC): 25 May 2026 14:07:55
Eccentricity: 0.0001698
inclination: 0.0389°
perigee height: 35779 km
apogee height: 35793 km
right ascension of ascending node: 94.9524°
argument of perigee: 359.9892°
revolutions per day: 1.00273244
mean anomaly at epoch: 26.0068°

The dashed part of the orbit path shows where the satellite is in the earth's shadow,  

DLR